[[{"header":{"parameterUnit":"m.s-1","parameterCategory":1,"la1":30.2992,"la2":30.254,"lo1":-89.0895,"lo2":-89.0443,"dy":0.0025,"dx":0.0025,"nx":19,"ny":19,"refTime":"2026-03-25T21:00:00:Z","depth":0,"parameterNumber":2,"parameterNumberName":"U-component_of_WINDS"},"data":[0,0,0,-2.5597,-2.5597,-2.5595,-2.5595,-2.5618,-2.5619,0,0,0,0,0,0,0,0,0,0,0,-2.5612,-2.5613,-2.5597,-2.5597,-2.5595,-2.5595,-2.5618,-2.5619,0,0,0,0,0,0,0,0,0,0,0,-2.5612,-2.5613,-2.5613,-2.5597,-2.5595,-2.5595,-2.5618,-2.5611,0,0,0,0,0,0,0,0,0,0,-2.5608,-2.5637,-2.5612,-2.5613,-2.5597,-2.5595,-2.5595,-2.561,-2.5611,-2.563,0,-2.565,0,-2.5635,-2.5622,-2.5622,0,0,0,-2.5586,-2.5636,-2.5622,-2.5614,-2.5597,-2.5595,-2.5593,-2.561,-2.5612,-2.5632,-2.565,-2.565,-2.5635,-2.5622,-2.5622,-2.5766,-2.5767,0,0,-2.5586,-2.562,-2.5621,-2.5623,-2.5624,-2.5593,-2.5593,-2.5611,-2.5633,-2.565,-2.565,-2.5636,-2.5623,-2.5623,-2.5765,-2.5767,0,0,0,-2.5594,-2.5621,-2.5605,-2.5623,-2.5621,-2.5593,-2.5593,-2.5632,-2.5625,-2.5651,-2.5636,-2.5623,-2.5623,-2.5764,-2.5766,-2.5856,0,0,0,-2.5594,-2.5625,-2.5606,-2.5627,-2.5621,-2.5626,-2.5615,-2.5623,-2.5624,-2.5636,-2.5623,-2.5624,-2.5762,-2.5765,-2.585,-2.5893,0,0,0,-2.5607,-2.5626,-2.5631,-2.5628,-2.5629,-2.5625,-2.5618,-2.5623,-2.5616,-2.5622,-2.5624,-2.5761,-2.5764,-2.5846,-2.5885,-2.594,0,0,0,-2.5632,-2.5711,-2.5633,-2.5716,-2.5629,-2.5681,-2.5617,-2.5655,-2.5671,-2.5623,-2.5763,-2.5765,-2.5844,-2.588,-2.5936,-2.5993,-2.602,0,0,-2.5751,-2.5727,-2.5773,-2.5703,-2.5777,-2.5678,-2.5766,-2.575,-2.572,-2.5753,-2.5756,-2.5852,-2.5884,-2.5939,-2.616,-2.6182,0,0,0,-2.5823,-2.5857,-2.5869,-2.5885,-2.5874,-2.5868,-2.5835,-2.5829,-2.5855,-2.5744,-2.5886,-2.5904,-2.5935,-2.5961,-2.598,-2.6004,-2.5779,-2.5779,-2.5778,-2.6039,-2.5997,-2.6071,-2.6029,-2.6046,-2.601,-2.602,-2.6006,-2.5959,-2.5994,-2.6003,-2.6142,-2.6174,-2.6187,-2.6213,-2.603,-2.603,-2.6031,-2.6031,-2.621,-2.6251,-2.6186,-2.6235,-2.619,-2.6231,-2.6201,-2.6166,-2.6198,-2.6131,-2.6156,-2.6087,-2.6212,-2.6233,-2.6037,-2.6036,-2.6035,-2.6035,-2.6034,-2.6347,-2.6359,-2.635,-2.637,-2.639,-2.6345,-2.6379,-2.6337,-2.6298,-2.6323,-2.6328,-2.6327,-2.632,-2.6329,-2.6329,-2.633,-2.633,-2.633,-2.6331,-2.6492,-2.6479,-2.6512,-2.6508,-2.6513,-2.6515,-2.6481,-2.6486,-2.648,-2.6447,-2.6447,-2.6397,-2.6232,-2.6192,-2.6338,-2.6337,-2.6336,-2.6335,-2.6334,-2.668,-2.6631,-2.6682,-2.6688,-2.6679,-2.6703,-2.6649,-2.6662,-2.666,-2.6679,-2.6623,-2.6508,-2.6481,-2.6466,-2.6432,-2.6632,-2.6632,-2.6632,-2.6632,-2.6796,-2.6778,-2.682,-2.6832,-2.6839,-2.6796,-2.6856,-2.6832,-2.6798,-2.6795,-2.676,-2.6712,-2.6698,-2.6679,-2.6659,-2.6627,-2.6872,-2.6872,-2.6872,-2.6909,-2.689,-2.6948,-2.6914,-2.6905,-2.6899,-2.6954,-2.6971,-2.6924,-2.6881,-2.6791,-2.6781,-2.6703,-2.6679,-2.6634,-2.6604,-2.6544,0,0]},{"header":{"parameterUnit":"m.s-1","parameterCategory":1,"la1":30.2992,"la2":30.254,"lo1":-89.0895,"lo2":-89.0443,"dy":0.0025,"dx":0.0025,"nx":19,"ny":19,"refTime":"2026-03-25T21:00:00:Z","depth":0,"parameterNumber":3,"parameterNumberName":"V-component_of_WINDS"},"data":[0,0,0,-0.188,-0.188,-0.1907,-0.1907,-0.194,-0.194,0,0,0,0,0,0,0,0,0,0,0,-0.1871,-0.1871,-0.188,-0.188,-0.1907,-0.1907,-0.194,-0.194,0,0,0,0,0,0,0,0,0,0,0,-0.1871,-0.1871,-0.1871,-0.1881,-0.1907,-0.1907,-0.194,-0.192,0,0,0,0,0,0,0,0,0,0,-0.1894,-0.1885,-0.1871,-0.1871,-0.1881,-0.1907,-0.1907,-0.1919,-0.1921,-0.1927,0,-0.1932,0,-0.1936,-0.1942,-0.1942,0,0,0,-0.1881,-0.1884,-0.1892,-0.1871,-0.1881,-0.1907,-0.1895,-0.192,-0.1923,-0.193,-0.1932,-0.1933,-0.1937,-0.1942,-0.1943,-0.197,-0.1971,0,0,-0.188,-0.1876,-0.189,-0.1893,-0.1889,-0.1895,-0.1896,-0.1922,-0.1924,-0.1932,-0.1934,-0.1937,-0.1943,-0.1943,-0.197,-0.1971,0,0,0,-0.1875,-0.1874,-0.1882,-0.1892,-0.1897,-0.1895,-0.1897,-0.1923,-0.1926,-0.1935,-0.1938,-0.1943,-0.1943,-0.197,-0.197,-0.197,0,0,0,-0.1874,-0.1872,-0.1881,-0.1879,-0.1896,-0.191,-0.1898,-0.1924,-0.1927,-0.1938,-0.1943,-0.1943,-0.197,-0.197,-0.197,-0.1971,0,0,0,-0.187,-0.1871,-0.1875,-0.1878,-0.189,-0.191,-0.1914,-0.1925,-0.1929,-0.1942,-0.1943,-0.197,-0.197,-0.197,-0.1971,-0.1977,0,0,0,-0.1864,-0.1875,-0.1875,-0.1888,-0.1889,-0.191,-0.1914,-0.193,-0.1941,-0.1943,-0.197,-0.197,-0.197,-0.1971,-0.1976,-0.1981,-0.1982,0,0,-0.1876,-0.1876,-0.1885,-0.1885,-0.1904,-0.1906,-0.1925,-0.194,-0.1945,-0.1962,-0.1962,-0.197,-0.1971,-0.1977,-0.1991,-0.1992,0,0,0,-0.1887,-0.1893,-0.1899,-0.1909,-0.192,-0.1929,-0.1941,-0.1946,-0.196,-0.1953,-0.1974,-0.1975,-0.1978,-0.198,-0.1981,-0.1984,-0.1971,-0.1971,-0.1971,-0.1899,-0.1904,-0.1918,-0.1926,-0.1935,-0.1947,-0.1955,-0.1963,-0.1967,-0.1972,-0.1977,-0.1985,-0.1987,-0.1988,-0.1991,-0.198,-0.198,-0.198,-0.198,-0.1917,-0.1926,-0.1928,-0.1942,-0.1948,-0.196,-0.197,-0.1972,-0.1984,-0.1982,-0.1986,-0.1983,-0.1989,-0.1992,-0.198,-0.198,-0.198,-0.198,-0.198,-0.1925,-0.193,-0.1935,-0.1949,-0.1959,-0.1966,-0.1977,-0.1981,-0.1986,-0.1989,-0.1994,-0.1994,-0.1995,-0.1991,-0.1991,-0.1991,-0.1991,-0.1991,-0.1991,-0.1932,-0.1937,-0.1945,-0.1956,-0.1962,-0.1971,-0.1981,-0.1987,-0.1995,-0.1997,-0.1997,-0.2,-0.1989,-0.1986,-0.1992,-0.1992,-0.1991,-0.1991,-0.1991,-0.1948,-0.1944,-0.1957,-0.1963,-0.1975,-0.1984,-0.1989,-0.2,-0.2006,-0.201,-0.2012,-0.2003,-0.2004,-0.2004,-0.2001,-0.2011,-0.2011,-0.2011,-0.2011,-0.1955,-0.1955,-0.1968,-0.1977,-0.1986,-0.1991,-0.2004,-0.2011,-0.2018,-0.2022,-0.2021,-0.2018,-0.2017,-0.2019,-0.2018,-0.2016,-0.2029,-0.2029,-0.2029,-0.1965,-0.1966,-0.1977,-0.1983,-0.1992,-0.1999,-0.2012,-0.2021,-0.2029,-0.203,-0.2025,-0.2024,-0.2019,-0.2018,-0.202,-0.2018,-0.2014,0,0]}]]